GPS BIIR-4 (PRN 20)

Last updated on Fri Jul 11 2025 00:03:11 GMT+0000 (Coordinated Universal Time)

1 26360U 00025A 25191.29073752 -.00000055 00000+0 00000+0 0 9996 2 26360 54.9512 33.1212 0035461 232.4810 297.9145 2.00579506184415
UTC large
Height (km)
Speed (km/s)
/
Latitude / Longitude
Inclination (degrees)
Orbital Period (minutes)
Azimuth
Elevation
Range (km)
Doppler Factor

Next 0 passes for location: London (51.5072 / 0.1276)

Sorry there are no passes over London.